Prague, Czech Republic

11:15 PM CEST on October 18, 2017 (GMT +0200)
Ruzyne

Weather History for LKPR - October, 2012

Change the Weather History Date:

Tuesday, October 30, 2012

  Actual Average Record
Temperature  
Mean Temperature 32 °F -  
Max Temperature 39 °F 43 °F 60 °F (2001)
Min Temperature 24 °F 32 °F 24 °F (2012)
Degree Days  
Heating Degree Days 34    
Moisture  
Dew Point 31 °F    
Average Humidity 86    
Maximum Humidity 93    
Minimum Humidity 73    
Precipitation  
Precipitation 0.00 in 0.04 in - ()
Sea Level Pressure  
Sea Level Pressure 29.72 in    
Wind  
Wind Speed 10 mph ()    
Max Wind Speed 18 mph    
Max Gust Speed -    
Visibility 6.4 miles    
Events Rain , Snow    
Averages and records for this station are not official NWS values.
T = Trace of Precipitation, MM = Missing Value Source: Averaged Metar Reports

Daily Weather History Graph

Daily Weather History Graph

Search for Another Location

Airport or City:

Trip Planner

Search our weather history database for the weather conditions in past years. The results will help you decide how hot, cold, wet, or windy it might be!

Date:

Astronomy

Oct. 30, 2012 Rise Set
Actual Time 6:49 AM CET 4:42 PM CET
Civil Twilight 6:15 AM CET 5:16 PM CET
Nautical Twilight 5:37 AM CET 5:54 PM CET
Astronomical Twilight 5:00 AM CET 6:31 PM CET
Moon 4:52 PM CET (10/30) 7:27 AM CET (10/30)
Length of Visible Light 11h 00m
Length of Day
9h 52m
Full, 100% of the Moon is Illuminated
Oct 30
Full
Nov 7
Last Quarter
Nov 13
New
Nov 20
First Quarter
Nov 28
Full

Hourly Weather History & Observations

Time (CET) Temp. Windchill Dew Point Humidity Pressure Visibility Wind Dir Wind Speed Gust Speed Precip Events Conditions
12:00 AM 24.8 °F 16.1 °F 23.0 °F 93% 29.83 in - South 8.1 mph - N/A   Clear
12:30 AM 26.6 °F 17.5 °F 23.0 °F 86% 29.83 in - South 9.2 mph - N/A   Clear
1:00 AM 27 °F - 24 °F 85% 29.90 in 9 mi SSW 11.2 mph - -   Mostly Cloudy
1:00 AM 26.6 °F 17.5 °F 24.8 °F 93% 29.80 in - South 9.2 mph - N/A   Clear
1:30 AM 28.4 °F 19.1 °F 24.8 °F 86% 29.80 in - South 10.4 mph - N/A   Clear
2:00 AM 28.4 °F 22.2 °F 24.8 °F 86% 29.80 in - South 5.8 mph - N/A   Clear
2:30 AM 28.4 °F 21.2 °F 24.8 °F 86% 29.77 in - SSW 6.9 mph - N/A   Clear
3:00 AM 30.2 °F 24.3 °F 26.6 °F 86% 29.77 in - South 5.8 mph - N/A   Clear
3:30 AM 30.2 °F 24.3 °F 26.6 °F 86% 29.77 in 6.2 mi SSW 5.8 mph - N/A   Mostly Cloudy
4:00 AM 30.2 °F 20.8 °F 26.6 °F 86% 29.74 in 6.2 mi SW 11.5 mph - N/A   Mostly Cloudy
4:30 AM 30.2 °F 21.9 °F 28.4 °F 93% 29.74 in 6.2 mi SSW 9.2 mph - N/A   Mostly Cloudy
5:00 AM 32.0 °F 23.0 °F 28.4 °F 87% 29.74 in 6.2 mi SW 11.5 mph - N/A   Mostly Cloudy
5:30 AM 32.0 °F 22.5 °F 28.4 °F 87% 29.74 in 6.2 mi SW 12.7 mph - N/A   Mostly Cloudy
6:00 AM 32.0 °F 22.5 °F 28.4 °F 87% 29.71 in 6.2 mi SW 12.7 mph - N/A   Mostly Cloudy
6:30 AM 32.0 °F 23.0 °F 28.4 °F 87% 29.71 in 6.2 mi SW 11.5 mph - N/A   Mostly Cloudy
7:00 AM 33 °F - 29 °F 80% 29.80 in 6 mi SW 8.9 mph - - Snow Light Snow
7:00 AM 32.0 °F 23.6 °F 28.4 °F 87% 29.74 in 6.2 mi SW 10.4 mph - N/A   Mostly Cloudy
7:30 AM 32.0 °F 23.6 °F 28.4 °F 87% 29.74 in 6.2 mi SW 10.4 mph - N/A   Mostly Cloudy
8:00 AM 33.8 °F 24.3 °F 30.2 °F 87% 29.74 in 6.2 mi SSW 13.8 mph - N/A   Overcast
8:30 AM 33.8 °F 25.8 °F 30.2 °F 87% 29.71 in 5.6 mi SSW 10.4 mph - N/A   Overcast
9:00 AM 33.8 °F 27.0 °F 30.2 °F 87% 29.71 in 5.6 mi SSW 8.1 mph - N/A   Overcast
9:30 AM 33.8 °F 26.4 °F 30.2 °F 87% 29.71 in 5.0 mi SSW 9.2 mph - N/A   Overcast
10:00 AM 35.6 °F 27.1 °F 32.0 °F 87% 29.71 in 5.6 mi SW 12.7 mph - N/A   Mostly Cloudy
10:30 AM 35.6 °F 27.1 °F 32.0 °F 87% 29.71 in 6.2 mi SSW 12.7 mph - N/A   Mostly Cloudy
11:00 AM 35.6 °F 28.6 °F 32.0 °F 87% 29.71 in 6.2 mi SSW 9.2 mph - N/A   Mostly Cloudy
11:30 AM 35.6 °F 28.6 °F 32.0 °F 87% 29.68 in 6.2 mi SSW 9.2 mph - N/A   Mostly Cloudy
12:00 PM 37.4 °F 30.8 °F 32.0 °F 81% 29.68 in 6.2 mi SSW 9.2 mph - N/A   Mostly Cloudy
12:30 PM 37.4 °F 29.3 °F 32.0 °F 81% 29.68 in 6.2 mi SSW 12.7 mph - N/A   Mostly Cloudy
1:00 PM 39 °F - 33 °F 73% 29.71 in 12 mi SW 15.7 mph - -   Partly Cloudy
1:00 PM 39.2 °F 31.2 °F 33.8 °F 81% 29.65 in 6.2 mi SW 13.8 mph - N/A   Scattered Clouds
1:30 PM 39.2 °F 30.2 °F 33.8 °F 81% 29.65 in 6.2 mi SW 17.3 mph - N/A   Scattered Clouds
2:00 PM 39.2 °F 30.5 °F 33.8 °F 81% 29.65 in 6.2 mi SW 16.1 mph - N/A Rain Light Rain
2:17 PM 39.2 °F 30.5 °F 33.8 °F 81% 29.65 in 6.2 mi SW 16.1 mph - N/A   Mostly Cloudy
2:30 PM 39.2 °F 30.5 °F 33.8 °F 81% 29.65 in 6.2 mi SW 16.1 mph - N/A   Overcast
2:48 PM 37.4 °F 27.5 °F 33.8 °F 87% 29.65 in 6.2 mi SW 18.4 mph - N/A Rain Light Rain
3:00 PM 37.4 °F 27.8 °F 33.8 °F 87% 29.65 in 6.2 mi SW 17.3 mph - N/A Rain Light Rain
3:30 PM 37.4 °F 28.2 °F 33.8 °F 87% 29.65 in 6.2 mi SW 16.1 mph - N/A Rain Light Rain
4:00 PM 37.4 °F 27.8 °F 33.8 °F 87% 29.65 in 6.2 mi SW 17.3 mph - N/A   Mostly Cloudy
4:30 PM 37.4 °F 28.2 °F 33.8 °F 87% 29.65 in 6.2 mi SW 16.1 mph - N/A   Mostly Cloudy
5:00 PM 37.4 °F 28.2 °F 33.8 °F 87% 29.65 in 6.2 mi SW 16.1 mph - N/A   Mostly Cloudy
5:17 PM 37.4 °F 28.2 °F 33.8 °F 87% 29.68 in 6.2 mi SW 16.1 mph - N/A   Mostly Cloudy
5:30 PM 37.4 °F 28.2 °F 33.8 °F 87% 29.68 in 6.2 mi SW 16.1 mph - N/A   Mostly Cloudy
6:00 PM 37.4 °F 28.9 °F 33.8 °F 87% 29.68 in 6.2 mi SW 13.8 mph - N/A   Mostly Cloudy
6:30 PM 37.4 °F 28.5 °F 33.8 °F 87% 29.68 in 6.2 mi SW 15.0 mph - N/A   Mostly Cloudy
7:00 PM 38 °F - 34 °F 81% 29.75 in 12 mi SW 11.2 mph - -   Partly Cloudy
7:00 PM 37.4 °F 29.3 °F 33.8 °F 87% 29.68 in 6.2 mi SW 12.7 mph - N/A   Mostly Cloudy
7:30 PM 37.4 °F 29.8 °F 33.8 °F 87% 29.71 in 6.2 mi SW 11.5 mph - N/A   Mostly Cloudy
8:00 PM 37.4 °F 29.3 °F 33.8 °F 87% 29.71 in 6.2 mi SW 12.7 mph - N/A   Mostly Cloudy
8:30 PM 37.4 °F 29.8 °F 33.8 °F 87% 29.71 in 6.2 mi SSW 11.5 mph - N/A   Overcast
9:00 PM 37.4 °F 29.3 °F 33.8 °F 87% 29.71 in 6.2 mi SW 12.7 mph - N/A   Mostly Cloudy
9:30 PM 37.4 °F 28.9 °F 35.6 °F 93% 29.71 in 6.2 mi SW 13.8 mph - N/A   Mostly Cloudy
10:00 PM 37.4 °F 29.8 °F 35.6 °F 93% 29.71 in 6.2 mi SW 11.5 mph - N/A   Overcast
10:30 PM 37.4 °F 30.8 °F 35.6 °F 93% 29.71 in 6.2 mi SW 9.2 mph - N/A   Mostly Cloudy
11:00 PM 37.4 °F 30.8 °F 35.6 °F 93% 29.71 in 6.2 mi SSW 9.2 mph - N/A   Mostly Cloudy
11:30 PM 37.4 °F 30.3 °F 35.6 °F 93% 29.71 in 6.2 mi SSW 10.4 mph - N/A   Mostly Cloudy